This is the latest recevied weather packets stored in our database for station/object W4DHW-4. If no packets are shown the sender has not sent any weather packets the latest 1 day(s).
| Time | Temp. | Humidity | Pressure | Rain* | Wind** | Luminosity | Snow |
|---|---|---|---|---|---|---|---|
| 1778023315 | 24.44° C | 36% | 1011.7 hPa | 0 mm | 1.79 m/s, 186° | 39 W/m² | - |
| 1778023012 | 24.44° C | 35% | 1011.6 hPa | 0 mm | 3.13 m/s, 200° | 44 W/m² | - |
| 1778022711 | 25° C | 34% | 1011.5 hPa | 0 mm | 3.13 m/s, 267° | 49 W/m² | - |
| 1778022409 | 25° C | 34% | 1011.7 hPa | 0 mm | 4.47 m/s, 219° | 54 W/m² | - |
| 1778022105 | 25° C | 35% | 1011.5 hPa | 0 mm | 3.13 m/s, 243° | 79 W/m² | - |
| 1778021801 | 25° C | 36% | 1011.8 hPa | 0 mm | 2.68 m/s, 223° | 91 W/m² | - |
| 1778021497 | 25° C | 36% | 1011.8 hPa | 0 mm | 0.89 m/s, 220° | 102 W/m² | - |
| 1778021193 | 25° C | 34% | 1011.9 hPa | 0 mm | 6.71 m/s, 186° | 122 W/m² | - |
| 1778020891 | 25° C | 36% | 1012 hPa | 0 mm | 3.13 m/s, 214° | 135 W/m² | - |
| 1778020588 | 25° C | 34% | 1011.7 hPa | 0 mm | 3.13 m/s, 227° | 151 W/m² | - |
| 1778020284 | 25.56° C | 36% | 1012.1 hPa | 0 mm | 3.58 m/s, 178° | 185 W/m² | - |
| 1778019981 | 25.56° C | 36% | 1011.8 hPa | 0 mm | 2.68 m/s, 161° | 245 W/m² | - |
| 1778019677 | 25° C | 36% | 1011.8 hPa | 0 mm | 2.24 m/s, 157° | 277 W/m² | - |
| 1778019374 | 25° C | 36% | 1011.7 hPa | 0 mm | 3.13 m/s, 214° | 137 W/m² | - |
| 1778019070 | 25° C | 37% | 1011.9 hPa | 0 mm | 4.92 m/s, 211° | 144 W/m² | - |
| 1778018768 | 24.44° C | 37% | 1011.9 hPa | 0 mm | 1.79 m/s, 112° | 134 W/m² | - |
| 1778018466 | 25° C | 37% | 1012.3 hPa | 0 mm | 2.24 m/s, 253° | 118 W/m² | - |
| 1778018163 | 25° C | 37% | 1011.9 hPa | 0 mm | 1.79 m/s, 163° | 134 W/m² | - |
| 1778017861 | 25° C | 37% | 1011.9 hPa | 0 mm | 2.24 m/s, 170° | 210 W/m² | - |
| 1778017559 | 25° C | 37% | 1011.7 hPa | 0 mm | 2.24 m/s, 215° | 291 W/m² | - |
| 1778017256 | 25° C | 37% | 1011.8 hPa | 0 mm | 1.79 m/s, 258° | 229 W/m² | - |
| 1778016953 | 25° C | 36% | 1011.9 hPa | 0 mm | 2.24 m/s, 205° | 131 W/m² | - |
| 1778016649 | 25° C | 36% | 1011.9 hPa | 0 mm | 2.24 m/s, 221° | 148 W/m² | - |
| 1778016340 | 25° C | 35% | 1012.1 hPa | 0 mm | 1.34 m/s, 206° | 168 W/m² | - |
| 1778016038 | 25° C | 34% | 1011.7 hPa | 0 mm | 6.26 m/s, 181° | 169 W/m² | - |
* Rain latest hour (hover to see other rain measurements)
** Current wind speed in m/s (hover to see current wind gust speed)